Time,TemperatureF,DewpointF,PressureIn,WindDirection,WindDirectionDegrees,WindSpeedMPH,WindSpeedGustMPH,Humidity,HourlyPrecipIn,Conditions,Clouds,dailyrainin,SoftwareType,DateUTC
2013-03-22 00:04:00,21.0,17.0,29.83,NW,304,4.0,9.0,83,0.00,,,0.00,,2013-03-22 04:04:00,
2013-03-22 00:12:00,21.0,17.0,29.83,NW,304,4.0,9.0,83,0.00,,,0.00,,2013-03-22 04:12:00,
2013-03-22 00:23:00,21.0,17.0,29.83,NW,312,6.0,12.0,84,0.00,,,0.00,,2013-03-22 04:23:00,
2013-03-22 00:32:00,21.0,17.0,29.83,West,259,4.0,11.0,84,0.00,,,0.00,,2013-03-22 04:32:00,
2013-03-22 00:43:00,21.0,17.0,29.83,West,259,4.0,11.0,84,0.00,,,0.00,,2013-03-22 04:43:00,
2013-03-22 00:52:00,21.0,17.0,29.83,NW,309,2.0,8.0,86,0.00,,,0.00,,2013-03-22 04:52:00,
2013-03-22 01:02:00,21.0,18.0,29.83,NW,304,4.0,10.0,89,0.00,,,0.00,,2013-03-22 05:02:00,
2013-03-22 01:12:00,21.0,18.0,29.83,NW,304,4.0,10.0,89,0.00,,,0.00,,2013-03-22 05:12:00,
2013-03-22 01:22:00,21.0,18.0,29.83,WNW,302,4.0,8.0,88,0.00,,,0.00,,2013-03-22 05:22:00,
2013-03-22 01:32:00,21.0,17.0,29.83,West,264,5.0,10.0,85,0.00,,,0.00,,2013-03-22 05:32:00,
2013-03-22 01:42:00,21.0,17.0,29.83,West,264,5.0,10.0,85,0.00,,,0.00,,2013-03-22 05:42:00,
2013-03-22 01:52:00,21.0,17.0,29.83,NNW,328,5.0,14.0,84,0.00,,,0.00,,2013-03-22 05:52:00,
2013-03-22 02:02:00,21.0,16.0,29.83,NW,318,4.0,10.0,80,0.00,,,0.00,,2013-03-22 06:02:00,
2013-03-22 02:13:00,21.0,16.0,29.83,NW,318,4.0,10.0,80,0.00,,,0.00,,2013-03-22 06:13:00,
2013-03-22 02:22:00,22.0,16.0,29.83,NW,311,6.0,13.0,77,0.00,,,0.00,,2013-03-22 06:22:00,
2013-03-22 02:32:00,22.0,15.0,29.83,NW,326,6.0,13.0,75,0.00,,,0.00,,2013-03-22 06:32:00,
2013-03-22 02:42:00,22.0,15.0,29.83,NW,326,6.0,13.0,75,0.00,,,0.00,,2013-03-22 06:42:00,
2013-03-22 02:52:00,22.0,15.0,29.83,NNW,343,6.0,12.0,74,0.00,,,0.00,,2013-03-22 06:52:00,
2013-03-22 03:03:00,22.0,15.0,29.83,NNW,341,6.0,12.0,73,0.00,,,0.00,,2013-03-22 07:03:00,
2013-03-22 03:12:00,22.0,15.0,29.83,NNW,341,6.0,12.0,73,0.00,,,0.00,,2013-03-22 07:12:00,
2013-03-22 03:22:00,22.0,15.0,29.83,WNW,285,3.0,11.0,73,0.00,,,0.00,,2013-03-22 07:22:00,
2013-03-22 03:32:00,22.0,16.0,29.83,WNW,296,3.0,8.0,76,0.00,,,0.00,,2013-03-22 07:32:00,
2013-03-22 03:42:00,22.0,16.0,29.83,WNW,296,3.0,8.0,76,0.00,,,0.00,,2013-03-22 07:42:00,
2013-03-22 03:52:00,22.0,16.0,29.83,NW,309,3.0,8.0,78,0.00,,,0.00,,2013-03-22 07:52:00,
2013-03-22 04:03:00,21.0,15.0,29.83,NNW,342,3.0,17.0,78,0.00,,,0.00,,2013-03-22 08:03:00,
2013-03-22 04:13:00,21.0,15.0,29.83,NNW,342,3.0,17.0,78,0.00,,,0.00,,2013-03-22 08:13:00,
2013-03-22 04:22:00,21.0,16.0,29.83,NW,305,6.0,12.0,80,0.00,,,0.00,,2013-03-22 08:22:00,
2013-03-22 04:32:00,21.0,16.0,29.83,WNW,294,4.0,9.0,79,0.00,,,0.00,,2013-03-22 08:32:00,
2013-03-22 04:42:00,21.0,16.0,29.83,WNW,294,4.0,9.0,79,0.00,,,0.00,,2013-03-22 08:42:00,
2013-03-22 04:52:00,21.0,16.0,29.82,NNW,333,5.0,14.0,79,0.00,,,0.00,,2013-03-22 08:52:00,
2013-03-22 05:03:00,21.0,16.0,29.82,NNW,330,6.0,9.0,79,0.00,,,0.00,,2013-03-22 09:03:00,
2013-03-22 05:12:00,21.0,16.0,29.82,NNW,330,6.0,9.0,79,0.00,,,0.00,,2013-03-22 09:12:00,
2013-03-22 05:22:00,21.0,15.0,29.82,NW,319,4.0,11.0,78,0.00,,,0.00,,2013-03-22 09:22:00,
2013-03-22 05:33:00,21.0,15.0,29.82,NW,309,6.0,13.0,78,0.00,,,0.00,,2013-03-22 09:33:00,
2013-03-22 05:42:00,21.0,15.0,29.82,NW,309,6.0,13.0,78,0.00,,,0.00,,2013-03-22 09:42:00,
2013-03-22 05:53:00,21.0,15.0,29.83,NW,306,7.0,17.0,78,0.00,,,0.00,,2013-03-22 09:53:00,
2013-03-22 06:04:00,21.0,15.0,29.83,NW,312,7.0,11.0,78,0.00,,,0.00,,2013-03-22 10:04:00,
2013-03-22 06:12:00,21.0,15.0,29.83,NW,312,7.0,11.0,78,0.00,,,0.00,,2013-03-22 10:12:00,
2013-03-22 06:23:00,21.0,15.0,29.83,NW,320,6.0,10.0,78,0.00,,,0.00,,2013-03-22 10:23:00,
2013-03-22 06:33:00,21.0,15.0,29.84,NW,323,7.0,12.0,78,0.00,,,0.00,,2013-03-22 10:33:00,
2013-03-22 06:42:00,21.0,15.0,29.84,NW,323,7.0,12.0,78,0.00,,,0.00,,2013-03-22 10:42:00,
2013-03-22 06:52:00,21.0,15.0,29.84,WNW,301,6.0,14.0,78,0.00,,,0.00,,2013-03-22 10:52:00,
2013-03-22 07:03:00,21.0,16.0,29.85,NW,313,3.0,10.0,79,0.00,,,0.00,,2013-03-22 11:03:00,
2013-03-22 07:12:00,21.0,16.0,29.85,NW,313,3.0,10.0,79,0.00,,,0.00,,2013-03-22 11:12:00,
2013-03-22 07:22:00,21.0,16.0,29.85,NNW,335,6.0,11.0,79,0.00,,,0.00,,2013-03-22 11:22:00,
2013-03-22 07:33:00,21.0,16.0,29.85,NW,306,4.0,11.0,80,0.00,,,0.00,,2013-03-22 11:33:00,
2013-03-22 07:42:00,21.0,16.0,29.85,NW,306,4.0,11.0,80,0.00,,,0.00,,2013-03-22 11:42:00,
2013-03-22 07:52:00,21.0,16.0,29.86,NNW,348,6.0,8.0,79,0.00,,,0.00,,2013-03-22 11:52:00,
2013-03-22 08:02:00,22.0,16.0,29.86,NNW,333,5.0,10.0,79,0.00,,,0.00,,2013-03-22 12:02:00,
2013-03-22 08:12:00,22.0,16.0,29.86,NNW,333,5.0,10.0,79,0.00,,,0.00,,2013-03-22 12:12:00,
2013-03-22 08:22:00,22.0,16.0,29.87,NNW,342,6.0,17.0,79,0.00,,,0.00,,2013-03-22 12:22:00,
2013-03-22 08:32:00,22.0,16.0,29.87,NW,307,3.0,7.0,78,0.00,,,0.00,,2013-03-22 12:32:00,
2013-03-22 08:42:00,22.0,16.0,29.87,NW,307,3.0,7.0,78,0.00,,,0.00,,2013-03-22 12:42:00,
2013-03-22 08:52:00,22.0,16.0,29.87,WNW,292,6.0,13.0,77,0.00,,,0.00,,2013-03-22 12:52:00,
2013-03-22 09:02:00,22.0,16.0,29.87,WNW,299,6.0,12.0,77,0.00,,,0.00,,2013-03-22 13:02:00,
2013-03-22 09:12:00,22.0,16.0,29.87,WNW,299,6.0,12.0,77,0.00,,,0.00,,2013-03-22 13:12:00,
2013-03-22 09:22:00,23.0,17.0,29.88,NNW,334,4.0,12.0,77,0.00,,,0.00,,2013-03-22 13:22:00,
2013-03-22 09:32:00,23.0,17.0,29.88,WNW,300,5.0,15.0,76,0.00,,,0.00,,2013-03-22 13:32:00,
2013-03-22 09:42:00,23.0,17.0,29.88,WNW,300,5.0,15.0,76,0.00,,,0.00,,2013-03-22 13:42:00,
2013-03-22 09:52:00,24.0,17.0,29.88,WNW,293,4.0,12.0,75,0.00,,,0.00,,2013-03-22 13:52:00,
2013-03-22 10:03:00,24.0,17.0,29.88,NW,308,7.0,13.0,73,0.00,,,0.00,,2013-03-22 14:03:00,
2013-03-22 10:12:00,24.0,17.0,29.88,NW,308,7.0,13.0,73,0.00,,,0.00,,2013-03-22 14:12:00,
2013-03-22 10:22:00,24.0,17.0,29.88,NW,315,7.0,14.0,73,0.00,,,0.00,,2013-03-22 14:22:00,
2013-03-22 10:32:00,24.0,16.0,29.88,NNW,339,8.0,17.0,72,0.00,,,0.00,,2013-03-22 14:32:00,
2013-03-22 10:43:00,24.0,16.0,29.88,NNW,339,8.0,17.0,72,0.00,,,0.00,,2013-03-22 14:43:00,
2013-03-22 10:52:00,25.0,17.0,29.88,NNE,28,9.0,15.0,72,0.00,,,0.00,,2013-03-22 14:52:00,
2013-03-22 11:03:00,25.0,16.0,29.88,NW,305,10.0,21.0,67,0.00,,,0.00,,2013-03-22 15:03:00,
2013-03-22 11:12:00,25.0,16.0,29.88,NW,305,10.0,21.0,67,0.00,,,0.00,,2013-03-22 15:12:00,
2013-03-22 11:22:00,26.0,18.0,29.88,NW,305,3.0,19.0,70,0.00,,,0.00,,2013-03-22 15:22:00,
2013-03-22 11:33:00,26.0,17.0,29.88,NNW,333,8.0,22.0,67,0.00,,,0.00,,2013-03-22 15:33:00,
2013-03-22 11:43:00,26.0,17.0,29.88,NNW,333,8.0,22.0,67,0.00,,,0.00,,2013-03-22 15:43:00,
2013-03-22 11:52:00,27.0,16.0,29.88,West,267,9.0,15.0,64,0.00,,,0.00,,2013-03-22 15:52:00,
2013-03-22 12:03:00,27.0,17.0,29.89,WNW,297,7.0,14.0,65,0.00,,,0.00,,2013-03-22 16:03:00,
2013-03-22 12:13:00,27.0,17.0,29.89,WNW,297,7.0,14.0,65,0.00,,,0.00,,2013-03-22 16:13:00,
2013-03-22 12:23:00,27.0,16.0,29.89,NNW,342,6.0,16.0,64,0.00,,,0.00,,2013-03-22 16:23:00,
2013-03-22 12:32:00,27.0,17.0,29.89,NNW,330,9.0,17.0,65,0.00,,,0.00,,2013-03-22 16:32:00,
2013-03-22 12:42:00,27.0,17.0,29.89,NNW,330,9.0,17.0,65,0.00,,,0.00,,2013-03-22 16:42:00,
2013-03-22 12:52:00,27.0,16.0,29.89,West,264,7.0,17.0,62,0.00,,,0.00,,2013-03-22 16:52:00,
2013-03-22 13:03:00,28.0,16.0,29.88,WNW,298,11.0,21.0,61,0.00,,,0.00,,2013-03-22 17:03:00,
2013-03-22 13:12:00,28.0,16.0,29.89,WSW,249,6.0,17.0,61,0.00,,,0.00,,2013-03-22 17:12:00,
2013-03-22 13:23:00,28.0,16.0,29.89,WSW,249,6.0,17.0,61,0.00,,,0.00,,2013-03-22 17:23:00,
2013-03-22 13:32:00,28.0,16.0,29.89,WNW,282,7.0,17.0,61,0.00,,,0.00,,2013-03-22 17:32:00,
2013-03-22 13:42:00,28.0,16.0,29.89,WNW,282,7.0,17.0,61,0.00,,,0.00,,2013-03-22 17:42:00,
2013-03-22 13:52:00,29.0,18.0,29.88,West,280,5.0,12.0,62,0.00,,,0.00,,2013-03-22 17:52:00,
2013-03-22 14:02:00,29.0,17.0,29.88,NNW,341,7.0,14.0,61,0.00,,,0.00,,2013-03-22 18:02:00,
2013-03-22 14:12:00,29.0,17.0,29.88,NNW,341,7.0,14.0,61,0.00,,,0.00,,2013-03-22 18:12:00,
2013-03-22 14:22:00,29.0,17.0,29.88,SSW,204,6.0,16.0,60,0.00,,,0.00,,2013-03-22 18:22:00,
2013-03-22 14:33:00,29.0,16.0,29.88,WNW,300,9.0,19.0,57,0.00,,,0.00,,2013-03-22 18:33:00,
2013-03-22 14:42:00,29.0,16.0,29.88,WNW,300,9.0,19.0,57,0.00,,,0.00,,2013-03-22 18:42:00,
2013-03-22 14:52:00,30.0,17.0,29.88,West,272,7.0,20.0,58,0.00,,,0.00,,2013-03-22 18:52:00,
2013-03-22 15:02:00,30.0,17.0,29.88,West,271,7.0,14.0,57,0.00,,,0.00,,2013-03-22 19:02:00,
2013-03-22 15:12:00,30.0,17.0,29.88,West,271,7.0,14.0,57,0.00,,,0.00,,2013-03-22 19:12:00,
2013-03-22 15:22:00,30.0,19.0,29.89,WNW,295,3.0,15.0,63,0.00,,,0.00,,2013-03-22 19:22:00,
2013-03-22 15:32:00,30.0,18.0,29.89,West,276,4.0,12.0,60,0.00,,,0.00,,2013-03-22 19:32:00,
2013-03-22 15:42:00,30.0,18.0,29.89,West,276,4.0,12.0,60,0.00,,,0.00,,2013-03-22 19:42:00,
2013-03-22 15:52:00,30.0,19.0,29.88,NW,319,5.0,16.0,62,0.00,,,0.00,,2013-03-22 19:52:00,
2013-03-22 16:02:00,31.0,18.0,29.89,WNW,290,7.0,14.0,59,0.00,,,0.00,,2013-03-22 20:02:00,
2013-03-22 16:12:00,31.0,18.0,29.89,WNW,290,7.0,14.0,59,0.00,,,0.00,,2013-03-22 20:12:00,
2013-03-22 16:22:00,30.0,19.0,29.88,North,354,4.0,27.0,62,0.00,,,0.00,,2013-03-22 20:22:00,
2013-03-22 16:32:00,30.0,18.0,29.88,NNW,338,5.0,21.0,60,0.00,,,0.00,,2013-03-22 20:32:00,
2013-03-22 16:43:00,30.0,18.0,29.88,NNW,338,5.0,21.0,60,0.00,,,0.00,,2013-03-22 20:43:00,
2013-03-22 16:52:00,29.0,18.0,29.89,NW,325,6.0,17.0,62,0.00,,,0.00,,2013-03-22 20:52:00,
2013-03-22 17:03:00,29.0,18.0,29.89,WNW,297,6.0,12.0,62,0.00,,,0.00,,2013-03-22 21:03:00,
2013-03-22 17:12:00,29.0,18.0,29.90,NW,304,8.0,19.0,63,0.00,,,0.00,,2013-03-22 21:12:00,
2013-03-22 17:22:00,29.0,18.0,29.90,NW,304,8.0,19.0,63,0.00,,,0.00,,2013-03-22 21:22:00,
2013-03-22 17:33:00,29.0,19.0,29.90,NNW,333,5.0,16.0,65,0.00,,,0.00,,2013-03-22 21:33:00,
2013-03-22 17:43:00,29.0,19.0,29.90,NNW,333,5.0,16.0,65,0.00,,,0.00,,2013-03-22 21:43:00,
2013-03-22 17:53:00,29.0,19.0,29.90,North,360,4.0,13.0,66,0.00,,,0.00,,2013-03-22 21:53:00,
2013-03-22 18:03:00,28.0,18.0,29.91,West,281,6.0,18.0,66,0.00,,,0.00,,2013-03-22 22:03:00,
2013-03-22 18:12:00,28.0,18.0,29.91,West,281,6.0,18.0,66,0.00,,,0.00,,2013-03-22 22:12:00,
2013-03-22 18:23:00,28.0,18.0,29.91,WSW,253,8.0,14.0,67,0.00,,,0.00,,2013-03-22 22:23:00,
2013-03-22 18:32:00,28.0,18.0,29.92,NW,311,9.0,15.0,67,0.00,,,0.00,,2013-03-22 22:32:00,
2013-03-22 18:43:00,28.0,18.0,29.92,NW,311,9.0,15.0,67,0.00,,,0.00,,2013-03-22 22:43:00,
2013-03-22 18:53:00,27.0,18.0,29.93,NW,307,9.0,17.0,69,0.00,,,0.00,,2013-03-22 22:53:00,
2013-03-22 19:02:00,27.0,18.0,29.93,NW,309,6.0,17.0,69,0.00,,,0.00,,2013-03-22 23:02:00,
2013-03-22 19:12:00,27.0,18.0,29.93,NW,309,6.0,17.0,69,0.00,,,0.00,,2013-03-22 23:12:00,
2013-03-22 19:22:00,27.0,19.0,29.94,NW,307,5.0,11.0,70,0.00,,,0.00,,2013-03-22 23:22:00,
2013-03-22 19:32:00,27.0,19.0,29.94,WNW,292,6.0,17.0,70,0.00,,,0.00,,2013-03-22 23:32:00,
2013-03-22 19:42:00,27.0,19.0,29.94,WNW,292,6.0,17.0,70,0.00,,,0.00,,2013-03-22 23:42:00,
2013-03-22 19:52:00,26.0,18.0,29.94,NNW,336,8.0,16.0,70,0.00,,,0.00,,2013-03-22 23:52:00,
2013-03-22 20:02:00,26.0,18.0,29.95,NW,319,9.0,17.0,71,0.00,,,0.00,,2013-03-23 00:02:00,
2013-03-22 20:12:00,26.0,18.0,29.95,NW,319,9.0,17.0,71,0.00,,,0.00,,2013-03-23 00:12:00,
2013-03-22 20:23:00,26.0,18.0,29.95,NNW,333,12.0,21.0,71,0.00,,,0.00,,2013-03-23 00:23:00,
2013-03-22 20:33:00,26.0,18.0,29.96,NNW,333,5.0,12.0,72,0.00,,,0.00,,2013-03-23 00:33:00,
2013-03-22 20:42:00,26.0,18.0,29.96,NNW,333,5.0,12.0,72,0.00,,,0.00,,2013-03-23 00:42:00,
2013-03-22 20:52:00,26.0,19.0,29.96,NNW,345,6.0,12.0,73,0.00,,,0.00,,2013-03-23 00:52:00,
2013-03-22 21:03:00,26.0,19.0,29.96,NNW,341,6.0,17.0,74,0.00,,,0.00,,2013-03-23 01:03:00,
2013-03-22 21:12:00,26.0,19.0,29.96,NNW,341,6.0,17.0,74,0.00,,,0.00,,2013-03-23 01:12:00,
2013-03-22 21:22:00,25.0,18.0,29.96,NW,314,9.0,15.0,73,0.00,,,0.00,,2013-03-23 01:22:00,
2013-03-22 21:32:00,25.0,19.0,29.97,NW,314,4.0,13.0,76,0.00,,,0.00,,2013-03-23 01:32:00,
2013-03-22 21:42:00,25.0,19.0,29.97,NW,314,4.0,13.0,76,0.00,,,0.00,,2013-03-23 01:42:00,
2013-03-22 21:52:00,25.0,19.0,29.98,NW,316,4.0,9.0,77,0.00,,,0.00,,2013-03-23 01:52:00,
2013-03-22 22:02:00,25.0,19.0,29.97,NW,322,4.0,16.0,77,0.00,,,0.00,,2013-03-23 02:02:00,
2013-03-22 22:12:00,25.0,19.0,29.97,NW,322,4.0,16.0,77,0.00,,,0.00,,2013-03-23 02:12:00,
2013-03-22 22:22:00,24.0,18.0,29.98,WNW,302,4.0,12.0,77,0.00,,,0.00,,2013-03-23 02:22:00,
2013-03-22 22:32:00,25.0,19.0,29.98,NW,311,7.0,13.0,76,0.00,,,0.00,,2013-03-23 02:32:00,
2013-03-22 22:42:00,25.0,19.0,29.98,NW,311,7.0,13.0,76,0.00,,,0.00,,2013-03-23 02:42:00,
2013-03-22 22:52:00,25.0,18.0,29.98,NNW,330,8.0,19.0,74,0.00,,,0.00,,2013-03-23 02:52:00,
2013-03-22 23:02:00,25.0,18.0,29.98,NW,319,4.0,14.0,75,0.00,,,0.00,,2013-03-23 03:02:00,
2013-03-22 23:12:00,25.0,18.0,29.98,NW,319,4.0,14.0,75,0.00,,,0.00,,2013-03-23 03:12:00,
2013-03-22 23:23:00,25.0,18.0,29.97,NNE,25,8.0,18.0,74,0.00,,,0.00,,2013-03-23 03:23:00,
2013-03-22 23:33:00,24.0,17.0,29.97,NW,321,7.0,14.0,75,0.00,,,0.00,,2013-03-23 03:33:00,
2013-03-22 23:43:00,24.0,17.0,29.97,NW,321,7.0,14.0,75,0.00,,,0.00,,2013-03-23 03:43:00,
2013-03-22 23:53:00,24.0,17.0,29.98,NW,319,5.0,16.0,75,0.00,,,0.00,,2013-03-23 03:53:00,